Regional Weather Roundup
Issued by NWS Green Bay, WI

Home | Current Version | Previous Version | Text Only | Print | Product List | Glossary On
Versions: 1 2 3 4 5 6 7 8 9 10 11 12 13 14 15 16 17 18 19 20 21 22 23 24 25 26 27 28 29 30 31 32 33 34 35 36 37 38 39 40 41 42 43 44 45 46 47 48 49 50
000
ASUS43 KGRB 290810
RWRGRB

NORTH-CENTRAL AND NORTHEAST WISCONSIN REGIONAL WEATHER ROUNDUP
NATIONAL WEATHER SERVICE GREEN BAY WI
200 AM CST MON DEC 29 2014

WIZ005-009-010>012-018-019-290900-
NORTH CENTRAL WISCONSIN

CITY           SKY/WX    TMP DP  RH WIND       PRES   REMARKS
IRONWOOD       CLOUDY     7   3  85 W10       30.28R WCI  -8
MANITOWISH WTR LGT SNOW -14 -19  79 CALM      30.27R
ARBOR VITAE    PTCLDY    -9 -14  78 CALM      30.27R
EAGLE RIVER    FLURRIES  -6 -11  78 CALM      30.25R
LAND O LAKES   FLURRIES   4   1  87 W5        30.25R WCI  -5
RHINELANDER    PTCLDY    -4  -7  87 NW6       30.27R WCI -16
PHILLIPS       PTCLDY   -15 -19  81 CALM      30.30R
ANTIGO         PTCLDY    -1  -4  87 CALM      30.27S
TOMAHAWK       PTCLDY   -13 -18  79 CALM      30.30R
MERRILL        PTCLDY    -5  -8  85 CALM      30.30R
$$

WIZ013-073-290900-
NORTHEAST WISCONSIN

CITY           SKY/WX    TMP DP  RH WIND       PRES   REMARKS
IRON MOUNTAIN    N/A      1  -3  83 NW5       30.26R WCI  -9
MARINETTE      CLEAR     10   3  72 NW3       30.32S
OCONTO         PTCLDY    11   7  84 CALM      30.34S
$$

WIZ017-030-035>037-045-290900-
CENTRAL WISCONSIN

CITY           SKY/WX    TMP DP  RH WIND       PRES   REMARKS
MEDFORD        MOCLDY   N/A N/A N/A N3        30.29S
WAUSAU         PTCLDY     3   0  87 NW3       30.30R
MOSINEE        MOCLDY     5   3  92 N7        30.31R WCI  -7
MARSHFIELD     MOCLDY     7   2  80 N7        30.31R WCI  -5
WISC RAPIDS    MOCLDY    12   6  77 N5        30.34R WCI   4
STEVENS POINT  MOCLDY     7   4  86 N5        30.31S WCI  -2
WAUPACA          N/A     15   9  76 N5        30.33S WCI   7
SHAWANO        PTCLDY    13   7  79 CALM      30.34R
CLINTONVILLE   PTCLDY    14   7  73 NW5       30.33R WCI   6
$$

WIZ038-039-048-051-290900-
FOX VALLEY

CITY           SKY/WX    TMP DP  RH WIND       PRES   REMARKS
NWS GREEN BAY  PTCLDY    15   7  70 N7        30.34R WCI   5
APPLETON       PTCLDY    16   7  67 N9        30.32R WCI   4
OSHKOSH        MOCLDY    18   9  68 N9        30.31R WCI   7
FOND DU LAC    MOCLDY    19  10  68 N13       30.30R WCI   6
$$

WIZ022-050-052-290900-
EAST CENTRAL WISCONSIN

CITY           SKY/WX    TMP DP  RH WIND       PRES   REMARKS
STURGEON BAY   CLEAR     16   7  67 NW10      30.33R WCI   3
MANITOWOC      PTCLDY    17  12  80 N10       30.32R WCI   5
SHEBOYGAN      PTCLDY    19  11  70 N10       30.30R WCI   7
$$

LMZ563-521-522-541>543-290900-
LAKESHORE

STATION/POSITION TIME  TEMP    WIND        PRES    VSBY  WAVE
                       AIR SEA DIR/SP/G                  HT/PER
                 (UTC) (F)     (DEG/KT/KT) (MB)    (MI)  (FT/S)
SHEBOYGAN LKSHOR 0800   21 36  360/ 17/ 18 1027.7R
KEWAUNEE LKSHORE 0800   16     330/  4/  8 1025.9R
ALGOMA MARINA    0800          330/  8/ 10   N/A
NORTHPORT PIER   0800   18     310/ 12/ 17 1026.4R
SISTER BAY LKSHO 0800          330/ 19/ 22   N/A
CHAMBERS ISLAND  0800   15     290/  7/ 11 1027.1R
MENOMINEE LKSHOR 0800   12     270/  7/  8 1027.6R
$$


USA.gov is the U.S. government's official web portal to all federal, state and local government web resources and services.